| time (UTC) | temp C | wind direction | speed KPH | gust KPH | rain 1hr cm | rain 24hr cm | rain mn cm | humidity % | barometer mb |
| 20260904211725 | 20 | 299 | 1.6 | 1.6 | 0.00 | 0.00 | 0.00 | 81 | 1067.3 |
| 20260904210720 | 20 | 311 | 1.6 | 3.2 | 0.00 | 0.00 | 0.00 | 79 | 1067.2 |
| 20260904205717 | 20 | 355 | 4.8 | 4.8 | 0.00 | 0.00 | 0.00 | 77 | 1067.1 |
| 20260904204715 | 21 | 334 | 4.8 | 4.8 | 0.00 | 0.00 | 0.00 | 77 | 1067.3 |
| 20260904203713 | 21 | 285 | 3.2 | 4.8 | 0.00 | 0.00 | 0.00 | 77 | 1067.3 |
| 20260904202710 | 21 | 319 | 3.2 | 3.2 | 0.00 | 0.00 | 0.00 | 74 | 1067.3 |
| 20260904201707 | 21 | 326 | 3.2 | 3.2 | 0.00 | 0.00 | 0.00 | 75 | 1067.4 |
| 20260904200708 | 21 | 273 | 0.0 | 1.6 | 0.00 | 0.00 | 0.00 | 75 | 1067.5 |
| 20260904195707 | 21 | 331 | 3.2 | 3.2 | 0.00 | 0.00 | 0.00 | 73 | 1067.5 |
| 20260904194707 | 22 | 42 | 4.8 | 4.8 | 0.00 | 0.00 | 0.00 | 68 | 1067.5 |
| 20260904193703 | 22 | 318 | 3.2 | 3.2 | 0.00 | 0.00 | 0.00 | 70 | 1067.5 |
| 20260904192658 | 21 | 313 | 3.2 | 3.2 | 0.00 | 0.00 | 0.00 | 68 | 1067.5 |
| 20260904191656 | 21 | 323 | 4.8 | 4.8 | 0.00 | 0.00 | 0.00 | 69 | 1067.4 |
| 20260904190654 | 22 | 320 | 3.2 | 4.8 | 0.00 | 0.00 | 0.00 | 70 | 1067.2 |
| 20260904185653 | 21 | 299 | 1.6 | 3.2 | 0.00 | 0.00 | 0.00 | 73 | 1067.6 |
| 20260904184651 | 22 | 340 | 3.2 | 3.2 | 0.00 | 0.00 | 0.00 | 71 | 1067.5 |
| 20260904183649 | 22 | 316 | 4.8 | 8.0 | 0.00 | 0.00 | 0.00 | 66 | 1067.7 |
| 20260904182644 | 22 | 326 | 4.8 | 4.8 | 0.00 | 0.00 | 0.00 | 70 | 1067.9 |
| 20260904181641 | 23 | 324 | 1.6 | 3.2 | 0.00 | 0.00 | 0.00 | 69 | 1067.9 |
| 20260904180636 | 23 | 337 | 6.4 | 8.0 | 0.00 | 0.00 | 0.00 | 68 | 1067.8 |
| 20260904175636 | 22 | 304 | 1.6 | 3.2 | 0.00 | 0.00 | 0.00 | 70 | 1068.1 |
| 20260904174635 | 22 | 327 | 8.0 | 9.7 | 0.00 | 0.00 | 0.00 | 67 | 1067.9 |
| 20260904173632 | 22 | 326 | 3.2 | 3.2 | 0.00 | 0.00 | 0.00 | 70 | 1067.9 |
| 20260904172630 | 21 | 315 | 1.6 | 3.2 | 0.00 | 0.00 | 0.00 | 69 | 1068.1 |
| 20260904171630 | 21 | 307 | 0.0 | 1.6 | 0.00 | 0.00 | 0.00 | 74 | 1068.3 |
| 20260904170627 | 21 | 325 | 3.2 | 3.2 | 0.00 | 0.00 | 0.00 | 72 | 1068.2 |
| 20260904165627 | 21 | 342 | 3.2 | 4.8 | 0.00 | 0.00 | 0.00 | 75 | 1068.3 |
| 20260904164627 | 21 | 47 | 3.2 | 3.2 | 0.00 | 0.00 | 0.00 | 75 | 1068.1 |
| 20260904163624 | 21 | 324 | 3.2 | 4.8 | 0.00 | 0.00 | 0.00 | 74 | 1068.4 |
| 20260904162619 | 21 | 331 | 4.8 | 4.8 | 0.00 | 0.00 | 0.00 | 72 | 1068.3 |
| 20260904161615 | 21 | 305 | 1.6 | 1.6 | 0.00 | 0.00 | 0.00 | 78 | 1068.7 |
| 20260904160612 | 21 | 318 | 3.2 | 3.2 | 0.00 | 0.00 | 0.00 | 74 | 1068.3 |
| 20260904155607 | 21 | 72 | 4.8 | 4.8 | 0.00 | 0.00 | 0.00 | 77 | 1068.3 |
| 20260904154607 | 21 | 41 | 3.2 | 4.8 | 0.00 | 0.00 | 0.00 | 75 | 1068.4 |
| 20260904153608 | 21 | 294 | 1.6 | 1.6 | 0.00 | 0.00 | 0.00 | 77 | 1068.5 |
| 20260904152605 | 21 | 324 | 6.4 | 9.7 | 0.00 | 0.00 | 0.00 | 76 | 1068.5 |
| 20260904151601 | 20 | 131 | 3.2 | 4.8 | 0.00 | 0.00 | 0.00 | 80 | 1068.7 |
| 20260904150601 | 20 | 324 | 4.8 | 4.8 | 0.00 | 0.00 | 0.00 | 82 | 1068.9 |
| 20260904145600 | 20 | 336 | 3.2 | 8.0 | 0.00 | 0.00 | 0.00 | 84 | 1068.8 |
| 20260904144557 | 20 | 316 | 1.6 | 3.2 | 0.00 | 0.00 | 0.00 | 85 | 1068.8 |
| 20260904143555 | 20 | 326 | 3.2 | 3.2 | 0.00 | 0.00 | 0.00 | 86 | 1069.1 |
| 20260904142553 | 20 | 336 | 1.6 | 1.6 | 0.00 | 0.00 | 0.00 | 85 | 1069.0 |
| 20260904141549 | 20 | 338 | 0.0 | 0.0 | 0.00 | 0.00 | 0.00 | 88 | 1069.0 |
| 20260904140545 | 18 | 310 | 3.2 | 3.2 | 0.00 | 0.00 | 0.00 | 89 | 1068.8 |
| 20260904135544 | 18 | 292 | 0.0 | 0.0 | 0.00 | 0.00 | 0.00 | 93 | 1069.0 |
| 20260904134542 | 17 | 304 | 3.2 | 3.2 | 0.00 | 0.00 | 0.00 | 99 | 1068.5 |
| 20260904133537 | 17 | 323 | 1.6 | 1.6 | 0.00 | 0.00 | 0.00 | 99 | 1068.9 |
| 20260904132533 | 17 | 291 | 0.0 | 0.0 | 0.00 | 0.00 | 0.00 | 99 | 1068.7 |
| 20260904131533 | 17 | 293 | 0.0 | 1.6 | 0.00 | 0.00 | 0.00 | 99 | 1068.8 |
| 20260904130528 | 16 | 158 | 1.6 | 1.6 | 0.00 | 0.00 | 0.00 | 99 | 1068.8 |
| 20260904125525 | 16 | 86 | 1.6 | 1.6 | 0.00 | 0.00 | 0.00 | 99 | 1068.9 |
| 20260904124521 | 16 | 250 | 0.0 | 0.0 | 0.00 | 0.00 | 0.00 | 99 | 1069.0 |
| 20260904123516 | 16 | 277 | 0.0 | 0.0 | 0.00 | 0.00 | 0.00 | 99 | 1069.1 |
| 20260904122513 | 15 | 277 | 0.0 | 0.0 | 0.00 | 0.00 | 0.00 | 99 | 1068.8 |
| 20260904121509 | 15 | 291 | 0.0 | 0.0 | 0.00 | 0.00 | 0.00 | 99 | 1068.8 |
| 20260904120506 | 14 | 288 | 0.0 | 0.0 | 0.00 | 0.00 | 0.00 | 99 | 1068.9 |
| 20260904115503 | 13 | 288 | 0.0 | 0.0 | 0.00 | 0.00 | 0.00 | 99 | 1068.9 |
| 20260904114503 | 13 | 288 | 0.0 | 0.0 | 0.00 | 0.00 | 0.00 | 99 | 1068.7 |
| 20260904113504 | 12 | 288 | 0.0 | 0.0 | 0.00 | 0.00 | 0.00 | 99 | 1068.8 |
| 20260904112459 | 12 | 289 | 0.0 | 0.0 | 0.00 | 0.00 | 0.00 | 99 | 1068.9 |
| 20260904111456 | 12 | 288 | 0.0 | 0.0 | 0.00 | 0.00 | 0.00 | 99 | 1068.8 |
| 20260904110451 | 11 | 288 | 0.0 | 0.0 | 0.00 | 0.00 | 0.00 | 99 | 1068.7 |
| 20260904105447 | 11 | 288 | 0.0 | 0.0 | 0.00 | 0.00 | 0.00 | 99 | 1068.4 |
| 20260904104441 | 11 | 288 | 0.0 | 0.0 | 0.00 | 0.00 | 0.00 | 99 | 1068.2 |
| 20260904103439 | 11 | 298 | 0.0 | 0.0 | 0.00 | 0.00 | 0.00 | 99 | 1068.3 |
| 20260904102437 | 11 | 288 | 0.0 | 0.0 | 0.00 | 0.00 | 0.00 | 99 | 1068.1 |
| 20260904101435 | 10 | 289 | 0.0 | 0.0 | 0.00 | 0.00 | 0.00 | 99 | 1068.1 |
| 20260904100432 | 10 | 291 | 0.0 | 0.0 | 0.00 | 0.00 | 0.00 | 99 | 1068.1 |
| 20260904095432 | 11 | 288 | 0.0 | 0.0 | 0.00 | 0.00 | 0.00 | 99 | 1068.0 |
| 20260904094428 | 11 | 288 | 0.0 | 0.0 | 0.00 | 0.00 | 0.00 | 99 | 1067.9 |
| 20260904093425 | 11 | 302 | 0.0 | 0.0 | 0.00 | 0.00 | 0.00 | 99 | 1067.9 |
| 20260904092423 | 11 | 289 | 0.0 | 0.0 | 0.00 | 0.00 | 0.00 | 99 | 1067.7 |
| 20260904091420 | 11 | 288 | 0.0 | 0.0 | 0.00 | 0.00 | 0.00 | 99 | 1067.6 |
| 20260904090417 | 11 | 289 | 0.0 | 0.0 | 0.00 | 0.00 | 0.00 | 99 | 1067.4 |
| 20260904085412 | 11 | 288 | 0.0 | 0.0 | 0.00 | 0.00 | 0.00 | 99 | 1067.7 |
| 20260904084409 | 11 | 288 | 0.0 | 0.0 | 0.00 | 0.00 | 0.00 | 99 | 1067.6 |
| 20260904083406 | 11 | 285 | 0.0 | 0.0 | 0.00 | 0.00 | 0.00 | 99 | 1067.6 |
| 20260904082402 | 11 | 281 | 0.0 | 0.0 | 0.00 | 0.00 | 0.00 | 99 | 1067.2 |
| 20260904081358 | 11 | 291 | 0.0 | 0.0 | 0.00 | 0.00 | 0.00 | 99 | 1067.1 |
| 20260904080355 | 11 | 288 | 0.0 | 0.0 | 0.00 | 0.00 | 0.00 | 99 | 1067.1 |
| 20260904075352 | 11 | 289 | 0.0 | 0.0 | 0.00 | 0.00 | 0.00 | 99 | 1067.2 |
| 20260904074351 | 11 | 288 | 0.0 | 0.0 | 0.00 | 0.00 | 0.00 | 99 | 1067.4 |
| 20260904073348 | 12 | 288 | 0.0 | 0.0 | 0.00 | 0.00 | 0.00 | 99 | 1067.2 |
| 20260904072344 | 12 | 288 | 0.0 | 0.0 | 0.00 | 0.00 | 0.00 | 99 | 1067.2 |
| 20260904071341 | 12 | 293 | 0.0 | 0.0 | 0.00 | 0.00 | 0.00 | 99 | 1066.9 |
| 20260904070340 | 12 | 293 | 0.0 | 0.0 | 0.00 | 0.00 | 0.00 | 99 | 1067.0 |
| 20260904065337 | 12 | 292 | 0.0 | 0.0 | 0.00 | 0.00 | 0.00 | 99 | 1067.1 |
| 20260904064334 | 12 | 293 | 0.0 | 0.0 | 0.00 | 0.00 | 0.00 | 99 | 1067.2 |
| 20260904063331 | 12 | 293 | 0.0 | 0.0 | 0.00 | 0.00 | 0.00 | 99 | 1067.3 |
| 20260904062328 | 12 | 289 | 0.0 | 0.0 | 0.00 | 0.00 | 0.00 | 99 | 1067.4 |
| 20260904061325 | 12 | 291 | 0.0 | 0.0 | 0.00 | 0.00 | 0.00 | 99 | 1067.8 |
| 20260904060322 | 12 | 291 | 0.0 | 0.0 | 0.00 | 0.00 | 0.00 | 99 | 1067.8 |
| 20260904055319 | 12 | 291 | 0.0 | 0.0 | 0.00 | 0.00 | 0.00 | 99 | 1067.6 |
| 20260904054316 | 12 | 298 | 0.0 | 0.0 | 0.00 | 0.00 | 0.00 | 99 | 1067.8 |
| 20260904053316 | 12 | 289 | 0.0 | 0.0 | 0.00 | 0.00 | 0.00 | 99 | 1067.8 |
| 20260904052315 | 12 | 289 | 0.0 | 0.0 | 0.00 | 0.00 | 0.00 | 99 | 1067.7 |
| 20260904051312 | 13 | 288 | 0.0 | 0.0 | 0.00 | 0.00 | 0.00 | 99 | 1068.0 |
| 20260904050310 | 13 | 289 | 0.0 | 0.0 | 0.00 | 0.00 | 0.00 | 99 | 1067.9 |
| 20260904045311 | 13 | 288 | 0.0 | 0.0 | 0.00 | 0.00 | 0.00 | 99 | 1067.8 |
| 20260904044308 | 13 | 289 | 0.0 | 0.0 | 0.00 | 0.00 | 0.00 | 99 | 1067.6 |
| 20260904043306 | 13 | 293 | 0.0 | 0.0 | 0.00 | 0.00 | 0.00 | 99 | 1067.8 |
| 20260904042305 | 13 | 293 | 0.0 | 0.0 | 0.00 | 0.00 | 0.00 | 99 | 1067.7 |
| 20260904041258 | 13 | 293 | 0.0 | 0.0 | 0.00 | 0.00 | 0.00 | 99 | 1068.0 |
| 20260904040255 | 13 | 291 | 0.0 | 0.0 | 0.00 | 0.00 | 0.00 | 99 | 1068.0 |
| 20260904035252 | 13 | 289 | 0.0 | 0.0 | 0.00 | 0.00 | 0.00 | 99 | 1068.0 |
| 20260904034247 | 13 | 289 | 0.0 | 0.0 | 0.00 | 0.00 | 0.00 | 99 | 1068.1 |
| 20260904033245 | 13 | 288 | 0.0 | 0.0 | 0.00 | 0.00 | 0.00 | 99 | 1068.0 |
| 20260904032246 | 14 | 293 | 0.0 | 0.0 | 0.00 | 0.00 | 0.00 | 99 | 1068.0 |
| 20260904031242 | 14 | 289 | 0.0 | 0.0 | 0.00 | 0.00 | 0.00 | 99 | 1068.0 |
| 20260904030239 | 14 | 288 | 0.0 | 0.0 | 0.00 | 0.00 | 0.00 | 99 | 1068.0 |
| 20260904025236 | 15 | 288 | 0.0 | 0.0 | 0.00 | 0.00 | 0.00 | 99 | 1067.9 |
| 20260904024232 | 15 | 288 | 0.0 | 0.0 | 0.00 | 0.00 | 0.00 | 99 | 1067.9 |
| 20260904023231 | 15 | 296 | 0.0 | 0.0 | 0.00 | 0.00 | 0.00 | 99 | 1067.9 |
| 20260904022227 | 15 | 288 | 0.0 | 0.0 | 0.00 | 0.00 | 0.00 | 99 | 1068.0 |
| 20260904021223 | 15 | 288 | 0.0 | 0.0 | 0.00 | 0.00 | 0.00 | 99 | 1068.2 |
| 20260904020218 | 15 | 289 | 0.0 | 0.0 | 0.00 | 0.00 | 0.00 | 99 | 1068.0 |
| 20260904015218 | 15 | 290 | 0.0 | 0.0 | 0.00 | 0.00 | 0.00 | 99 | 1068.2 |
| 20260904014218 | 15 | 303 | 1.6 | 1.6 | 0.00 | 0.00 | 0.00 | 99 | 1068.3 |
| 20260904013216 | 16 | 289 | 0.0 | 0.0 | 0.00 | 0.00 | 0.00 | 99 | 1068.4 |
| 20260904012216 | 16 | 289 | 0.0 | 0.0 | 0.00 | 0.00 | 0.00 | 99 | 1068.4 |
| 20260904011212 | 16 | 283 | 0.0 | 0.0 | 0.00 | 0.00 | 0.00 | 99 | 1068.4 |
| 20260904010209 | 16 | 290 | 0.0 | 0.0 | 0.00 | 0.00 | 0.00 | 99 | 1068.5 |
| 20260904005206 | 16 | 288 | 0.0 | 0.0 | 0.00 | 0.00 | 0.00 | 99 | 1068.3 |
| 20260904004207 | 16 | 293 | 0.0 | 0.0 | 0.00 | 0.00 | 0.00 | 99 | 1068.3 |
| 20260904003204 | 17 | 275 | 0.0 | 0.0 | 0.00 | 0.00 | 0.00 | 99 | 1068.0 |
| 20260904002201 | 17 | 289 | 0.0 | 0.0 | 0.00 | 0.00 | 0.00 | 99 | 1068.0 |
| 20260904001201 | 17 | 281 | 0.0 | 0.0 | 0.00 | 0.00 | 0.00 | 99 | 1068.0 |
| 20260904000158 | 17 | 280 | 0.0 | 0.0 | 0.00 | 0.00 | 0.00 | 99 | 1068.0 |
| 20260903235154 | 18 | 284 | 0.0 | 0.0 | 0.00 | 0.00 | 0.00 | 99 | 1068.0 |
| 20260903234150 | 18 | 275 | 0.0 | 0.0 | 0.00 | 0.00 | 0.00 | 99 | 1067.8 |
| 20260903233148 | 18 | 280 | 0.0 | 0.0 | 0.00 | 0.00 | 0.00 | 98 | 1067.6 |
| 20260903232143 | 19 | 287 | 0.0 | 0.0 | 0.00 | 0.00 | 0.00 | 95 | 1067.5 |
| 20260903231142 | 19 | 276 | 0.0 | 0.0 | 0.00 | 0.00 | 0.00 | 92 | 1067.3 |
| 20260903230137 | 20 | 280 | 0.0 | 0.0 | 0.00 | 0.00 | 0.00 | 94 | 1067.6 |
| 20260903225136 | 21 | 273 | 0.0 | 0.0 | 0.00 | 0.00 | 0.00 | 87 | 1067.6 |
| 20260903224134 | 21 | 273 | 0.0 | 0.0 | 0.00 | 0.00 | 0.00 | 83 | 1067.9 |
| 20260903223133 | 21 | 284 | 0.0 | 0.0 | 0.00 | 0.00 | 0.00 | 80 | 1067.7 |
| 20260903222133 | 22 | 293 | 1.6 | 1.6 | 0.00 | 0.00 | 0.00 | 78 | 1067.7 |
| 20260903221132 | 22 | 287 | 1.6 | 1.6 | 0.00 | 0.00 | 0.00 | 76 | 1067.5 |
| 20260903220132 | 22 | 291 | 0.0 | 1.6 | 0.00 | 0.00 | 0.00 | 75 | 1067.7 |
| 20260903215132 | 22 | 315 | 3.2 | 3.2 | 0.00 | 0.00 | 0.00 | 74 | 1067.8 |
| 20260903214126 | 23 | 318 | 4.8 | 4.8 | 0.00 | 0.00 | 0.00 | 72 | 1067.7 |
| 20260903213122 | 23 | 274 | 3.2 | 3.2 | 0.00 | 0.00 | 0.00 | 73 | 1067.5 |